AW673 Weather Reports


Display with metric or nautical units.
time (UTC)temp
F
wind
direction
speed
MPH
gust
MPH
rain 1hr
in
rain 24hr
in
rain mn
in
humidity
%
barometer
mb
20260831044744 68 264 2.0 4.0 0.00 0.00 0.00 64 1030.0
20260831043742 69 252 2.0 4.0 0.00 0.00 0.00 65 1030.0
20260831042741 68 193 1.0 2.0 0.00 0.00 0.00 68 1030.3
20260831041740 69 248 2.0 4.0 0.00 0.00 0.00 66 1030.2
20260831040759 69 153 2.0 4.0 0.00 0.00 0.00 67 1030.3
20260831035737 70 211 3.0 4.0 0.00 0.00 0.00 65 1030.4
20260831034735 71 266 3.0 8.0 0.00 0.00 0.00 63 1030.3
20260831033734 71 216 3.0 4.0 0.00 0.00 0.00 58 1030.3
20260831032733 70 234 3.0 5.0 0.00 0.00 0.00 59 1030.5
20260831031732 70 215 3.0 4.0 0.00 0.00 0.00 60 1030.5
20260831030730 71 211 3.0 4.0 0.00 0.00 0.00 60 1030.6
20260831025728 71 264 3.0 6.0 0.00 0.00 0.00 59 1030.7
20260831024727 70 217 2.0 4.0 0.00 0.00 0.00 62 1030.8
20260831023726 71 226 3.0 5.0 0.00 0.00 0.00 57 1031.0
20260831022725 70 259 2.0 4.0 0.00 0.00 0.00 63 1031.2
20260831021724 70 276 3.0 6.0 0.00 0.00 0.00 63 1031.3
20260831020742 71 224 3.0 4.0 0.00 0.00 0.00 63 1031.5
20260831015721 70 216 3.0 4.0 0.00 0.00 0.00 64 1031.7
20260831014740 69 220 3.0 4.0 0.00 0.00 0.00 65 1031.7
20260831013738 70 273 4.0 5.0 0.00 0.00 0.00 64 1031.9
20260831012717 67 273 3.0 5.0 0.00 0.00 0.00 67 1031.9
20260831011716 72 271 6.0 7.0 0.00 0.00 0.00 62 1031.9
20260831010745 69 255 2.0 4.0 0.00 0.00 0.00 66 1031.9
20260831005744 68 148 1.0 2.0 0.00 0.00 0.00 65 1032.0
20260831004743 69 210 2.0 3.0 0.00 0.00 0.00 64 1032.1
20260831003741 71 145 1.0 1.0 0.00 0.00 0.00 59 1032.1
20260831002741 69 121 1.0 1.0 0.00 0.00 0.00 61 1032.1
20260831001739 71 93 2.0 4.0 0.00 0.00 0.00 61 1032.1
20260831000737 69 186 2.0 3.0 0.00 0.00 0.00 63 1032.2
20260830235736 70 252 3.0 4.0 0.00 0.00 0.00 61 1032.3
20260830234735 66 0.0 2.0 0.00 0.00 0.00 66 1032.2
20260830233734 66 68 2.0 3.0 0.00 0.00 0.00 68 1032.3
20260830232732 65 99 2.0 2.0 0.00 0.00 0.00 69 1032.3
20260830231812 64 106 1.0 3.0 0.00 0.00 0.00 71 1032.3
20260830230730 64 42 2.0 3.0 0.00 0.00 0.00 72 1032.3
20260830225729 63 54 3.0 4.0 0.00 0.00 0.00 74 1032.3
20260830224727 62 60 3.0 4.0 0.00 0.00 0.00 75 1032.4
20260830223725 62 51 2.0 3.0 0.00 0.00 0.00 76 1032.3
20260830222725 62 76 1.0 2.0 0.00 0.00 0.00 77 1032.2
20260830221724 61 95 1.0 2.0 0.00 0.00 0.00 78 1032.2
20260830220722 61 85 3.0 5.0 0.00 0.00 0.00 77 1032.2
20260830215741 59 143 3.0 4.0 0.00 0.00 0.00 82 1032.2
20260830214720 58 111 2.0 4.0 0.00 0.00 0.00 84 1032.3
20260830213718 57 177 2.0 3.0 0.00 0.00 0.00 87 1032.2
20260830212717 55 87 2.0 5.0 0.00 0.00 0.00 91 1031.9
20260830211745 53 110 2.0 3.0 0.00 0.00 0.00 92 1031.9
20260830210743 52 96 3.0 5.0 0.00 0.00 0.00 95 1031.9
20260830205802 51 105 2.0 4.0 0.00 0.00 0.00 96 1032.0
20260830204741 50 102 3.0 3.0 0.00 0.00 0.00 97 1031.8
20260830203740 50 115 3.0 3.0 0.00 0.00 0.00 97 1031.9
20260830202738 49 120 3.0 3.0 0.00 0.00 0.00 97 1031.6
20260830201737 48 104 2.0 3.0 0.00 0.00 0.00 97 1031.6
20260830200736 48 143 1.0 3.0 0.00 0.00 0.00 97 1031.4
20260830195755 48 118 2.0 3.0 0.00 0.00 0.00 97 1031.2
20260830194734 49 132 2.0 4.0 0.00 0.00 0.00 97 1031.2
20260830193732 50 152 2.0 3.0 0.00 0.00 0.00 97 1031.0
20260830192731 50 114 2.0 4.0 0.00 0.00 0.00 97 1030.9
20260830191730 50 99 3.0 4.0 0.00 0.00 0.00 97 1030.8
20260830190729 50 110 2.0 3.0 0.00 0.00 0.00 97 1030.6
20260830185727 49 126 2.0 3.0 0.00 0.00 0.00 97 1030.5
20260830184726 50 116 3.0 4.0 0.00 0.00 0.00 97 1030.7
20260830183725 50 118 2.0 4.0 0.00 0.00 0.00 97 1030.3
20260830182724 50 122 3.0 4.0 0.00 0.00 0.00 97 1030.4
20260830181722 50 135 1.0 4.0 0.00 0.00 0.00 97 1030.4
20260830180742 51 140 2.0 3.0 0.00 0.00 0.00 96 1030.5
20260830175720 51 123 4.0 5.0 0.00 0.00 0.00 97 1030.3
20260830174719 51 136 3.0 4.0 0.00 0.00 0.00 97 1030.5
20260830173718 51 91 4.0 5.0 0.00 0.00 0.00 97 1030.4
20260830172716 50 102 2.0 3.0 0.00 0.00 0.00 97 1030.5
20260830171805 50 112 3.0 4.0 0.00 0.00 0.00 97 1030.5
20260830170744 50 93 1.0 4.0 0.00 0.00 0.00 97 1030.6
20260830165743 49 118 2.0 3.0 0.00 0.00 0.00 97 1030.4
20260830164741 49 117 2.0 3.0 0.00 0.00 0.00 97 1030.5
20260830163801 50 114 5.0 6.0 0.00 0.00 0.00 97 1030.7
20260830162739 50 91 4.0 4.0 0.00 0.00 0.00 96 1030.5
20260830161758 50 125 2.0 4.0 0.00 0.00 0.00 96 1030.6
20260830160737 50 93 3.0 3.0 0.00 0.00 0.00 96 1030.7
20260830155735 50 160 2.0 3.0 0.00 0.00 0.00 96 1030.8
20260830154734 51 171 2.0 3.0 0.00 0.00 0.00 96 1030.9
20260830153733 51 157 1.0 2.0 0.00 0.00 0.00 96 1030.9
20260830152732 51 200 2.0 4.0 0.00 0.00 0.00 96 1031.1
20260830151729 51 154 1.0 2.0 0.00 0.00 0.00 96 1031.0
20260830150728 51 121 2.0 3.0 0.00 0.00 0.00 95 1031.2
20260830145747 51 123 2.0 2.0 0.00 0.00 0.00 95 1031.2
20260830144746 52 131 2.0 2.0 0.00 0.00 0.00 95 1031.1
20260830143725 52 120 2.0 3.0 0.00 0.00 0.00 96 1031.1
20260830142723 52 117 2.0 3.0 0.00 0.00 0.00 96 1031.1
20260830141742 51 118 2.0 3.0 0.00 0.00 0.00 96 1031.4
20260830140721 51 111 2.0 3.0 0.00 0.00 0.00 96 1031.2
20260830135720 51 132 2.0 2.0 0.00 0.00 0.00 96 1031.4
20260830134718 51 131 2.0 2.0 0.00 0.00 0.00 96 1031.3
20260830133717 52 127 2.0 2.0 0.00 0.00 0.00 96 1031.2
20260830132715 52 125 2.0 2.0 0.00 0.00 0.00 96 1031.4
20260830131745 53 106 2.0 3.0 0.00 0.00 0.00 96 1031.4
20260830130744 53 105 2.0 3.0 0.00 0.00 0.00 96 1031.3
20260830125742 53 106 2.0 3.0 0.00 0.00 0.00 96 1031.4
20260830124802 53 111 3.0 3.0 0.00 0.00 0.00 96 1031.5
20260830123740 53 102 2.0 3.0 0.00 0.00 0.00 96 1031.5
20260830122738 53 104 3.0 3.0 0.00 0.00 0.00 96 1031.3
20260830121818 53 122 2.0 2.0 0.00 0.00 0.00 96 1031.5
20260830120736 53 111 2.0 2.0 0.00 0.00 0.00 96 1031.3
20260830115734 54 111 2.0 2.0 0.00 0.00 0.00 96 1031.5
20260830114733 54 101 2.0 2.0 0.00 0.00 0.00 96 1031.6
20260830113732 54 111 2.0 3.0 0.00 0.00 0.00 96 1031.6
20260830112731 54 108 2.0 2.0 0.00 0.00 0.00 96 1031.5
20260830111730 54 119 2.0 2.0 0.00 0.00 0.00 96 1031.4
20260830110728 54 108 2.0 3.0 0.00 0.00 0.00 95 1031.5
20260830105747 54 119 2.0 3.0 0.00 0.00 0.00 95 1031.3
20260830104726 54 117 3.0 3.0 0.00 0.00 0.00 95 1031.3
20260830103725 54 114 2.0 2.0 0.00 0.00 0.00 94 1031.2
20260830102724 55 123 2.0 2.0 0.00 0.00 0.00 94 1031.2
20260830101722 55 120 2.0 2.0 0.00 0.00 0.00 94 1031.1
20260830100721 55 117 2.0 2.0 0.00 0.00 0.00 94 1031.2
20260830095720 55 113 3.0 4.0 0.00 0.00 0.00 93 1031.1
20260830094718 55 126 2.0 2.0 0.00 0.00 0.00 93 1031.1
20260830093717 55 119 2.0 3.0 0.00 0.00 0.00 92 1030.9
20260830092745 56 115 2.0 3.0 0.00 0.00 0.00 92 1030.7
20260830091744 56 117 2.0 2.0 0.00 0.00 0.00 91 1030.7
20260830090743 57 118 2.0 3.0 0.00 0.00 0.00 90 1030.8
20260830085742 58 106 2.0 3.0 0.00 0.00 0.00 90 1030.7
20260830084800 58 103 2.0 3.0 0.00 0.00 0.00 90 1030.5
20260830083739 58 110 3.0 3.0 0.00 0.00 0.00 88 1030.5
20260830082738 59 107 3.0 3.0 0.00 0.00 0.00 87 1030.4
20260830081737 60 107 3.0 3.0 0.00 0.00 0.00 85 1030.2
20260830080735 60 104 2.0 3.0 0.00 0.00 0.00 84 1030.2
20260830075734 61 99 3.0 3.0 0.00 0.00 0.00 82 1030.1
20260830074733 62 108 2.0 3.0 0.00 0.00 0.00 80 1030.0
20260830073731 63 111 2.0 3.0 0.00 0.00 0.00 79 1029.9
20260830072730 64 121 1.0 2.0 0.00 0.00 0.00 77 1029.8
20260830071809 64 0.0 2.0 0.00 0.00 0.00 75 1029.8
20260830070728 65 174 1.0 3.0 0.00 0.00 0.00 73 1029.8
20260830065727 66 344 1.0 2.0 0.00 0.00 0.00 69 1029.7
20260830064725 67 0.0 1.0 0.00 0.00 0.00 68 1029.8
20260830063745 67 274 1.0 2.0 0.00 0.00 0.00 68 1029.7
20260830062723 67 282 2.0 4.0 0.00 0.00 0.00 68 1029.7
20260830061722 67 255 2.0 4.0 0.00 0.00 0.00 69 1029.9
20260830060720 67 301 2.0 6.0 0.00 0.00 0.00 69 1029.6
20260830055719 67 282 3.0 4.0 0.00 0.00 0.00 68 1029.8
20260830054719 67 275 2.0 3.0 0.00 0.00 0.00 67 1030.0
20260830053717 68 268 2.0 3.0 0.00 0.00 0.00 66 1029.8
20260830052746 67 280 1.0 6.0 0.00 0.00 0.00 67 1030.0
20260830051744 67 345 1.0 4.0 0.00 0.00 0.00 66 1029.9
20260830050743 68 281 3.0 5.0 0.00 0.00 0.00 65 1029.7
20260830045742 68 258 2.0 4.0 0.00 0.00 0.00 65 1029.7